Theta_e
326 328 330 329 329 329 330 329 330 330 334 340 344 337 332 353 352 351 350 349 347 347 345 346 348 349 350 349 349 349 349 350 350 349 349 348 348 348 348 348 347 346 346 344
328 330 328 328 328 329 328 326 326 328 329 328 325 332 339 352 353 351 351 349 348 346 343 342 343 347 349 349 348 349 349 349 349 349 349 348 348 348 348 348 348 348 345 346
330 330 329 330 330 330 325 326 327 328 325 326 327 331 337 339 342 345 349 347 346 346 344 342 342 345 346 347 347 348 348 349 349 349 349 348 348 347 347 349 349 349 349 348
330 329 331 329 328 327 326 325 327 326 324 326 325 327 336 336 340 346 343 348 346 345 344 343 347 344 345 346 346 347 348 349 349 349 349 349 348 348 349 349 350 350 349 348
330 329 327 325 327 323 324 327 326 326 323 324 326 331 335 336 341 349 349 347 347 346 347 349 347 346 345 346 346 347 348 349 350 350 350 350 350 350 350 350 350 350 350 349
326 323 324 324 325 324 324 324 322 324 321 324 328 334 341 341 340 342 347 347 348 345 343 340 342 342 342 347 348 347 348 349 349 350 350 351 350 350 349 350 351 351 351 350
323 325 324 325 325 323 322 321 324 327 333 333 332 337 335 337 337 339 343 346 346 346 344 345 343 341 341 342 352 351 350 350 350 350 350 347 347 344 344 346 349 351 351 350
323 328 325 324 324 325 323 322 322 328 326 326 335 341 339 339 345 343 343 350 352 348 345 346 349 349 348 344 342 354 352 351 350 344 339 337 336 344 346 342 345 348 348 347
323 323 320 322 322 323 322 322 320 324 332 337 337 338 336 343 343 346 353 353 352 350 348 349 350 349 349 345 347 357 354 347 347 348 341 336 336 336 344 345 349 349 349 351
321 324 320 323 322 322 322 319 324 323 339 343 341 343 340 345 345 346 351 353 352 346 346 350 350 349 350 349 345 348 346 343 342 340 339 338 342 337 340 340 344 351 353 354
316 319 323 328 330 325 325 328 322 324 330 337 339 339 334 340 343 345 351 353 350 345 344 347 348 349 349 351 348 345 346 344 345 346 343 340 345 340 340 344 349 352 353 353
317 315 320 329 323 326 329 330 326 330 334 334 333 336 333 335 340 341 348 345 341 343 341 344 345 347 346 347 349 351 351 352 351 351 350 350 348 350 350 351 351 353 353 352
319 320 324 328 328 328 334 333 325 323 325 334 338 334 332 336 339 340 342 342 341 342 343 342 339 339 341 343 345 347 348 348 348 347 349 351 350 347 350 349 350 351 350 351
325 317 322 327 328 329 336 335 329 329 332 331 332 334 335 338 346 345 345 344 346 345 345 343 340 338 336 333 334 342 343 342 343 344 348 347 345 345 343 344 345 344 345 346
321 326 329 330 334 330 331 332 334 335 332 334 333 338 336 335 337 347 349 348 347 346 344 341 337 337 334 334 335 337 340 341 338 339 341 342 342 342 339 332 339 341 342 341
322 328 327 328 328 331 335 334 333 334 333 335 336 340 334 330 329 330 331 329 328 326 325 324 324 323 324 326 327 328 329 329 337 339 338 337 338 339 338 339 336 338 338 337
322 322 324 331 326 329 329 335 335 334 332 335 340 336 327 327 327 325 325 326 327 327 326 325 325 325 326 327 328 329 329 329 329 331 335 336 336 336 335 333 334 335 334 332
324 324 322 327 324 331 328 330 330 330 329 331 331 327 326 325 325 326 325 327 328 328 327 326 326 326 327 327 326 326 326 327 328 328 328 329 330 332 334 334 333 333 333 333
320 322 325 326 328 333 335 332 332 334 331 327 329 328 326 326 325 327 326 326 326 325 325 325 326 324 324 324 324 324 325 326 326 327 328 329 330 331 331 332 333 334 333 333
321 321 325 323 335 338 331 331 328 327 334 327 325 325 325 323 327 324 325 325 325 324 324 323 323 323 323 323 324 324 324 324 325 326 326 327 327 327 327 329 330 332 334 335
327 325 324 326 327 328 328 329 328 336 332 325 324 324 324 325 322 322 325 323 323 323 323 323 323 323 324 324 324 324 323 323 324 325 325 326 327 327 328 329 328 328 330 332
328 330 331 332 335 334 327 328 334 328 323 323 324 325 325 325 325 324 323 322 322 321 321 322 322 323 324 325 324 322 323 322 323 321 322 325 326 326 327 327 328 328 328 329
330 326 331 330 330 324 323 325 322 320 322 326 326 325 324 325 324 322 321 320 320 321 322 323 322 324 321 321 319 317 316 316 315 315 315 315 318 321 326 327 326 327 328 328
328 323 327 327 326 326 323 322 323 324 325 324 324 324 323 323 321 320 319 319 321 322 322 321 320 318 317 316 315 315 314 313 312 312 312 312 312 313 316 321 326 325 327 327
325 325 326 326 327 325 326 326 326 326 325 323 322 321 321 320 320 320 320 322 321 321 319 318 317 315 315 314 314 314 313 313 313 312 312 312 312 312 312 314 318 323 327 327
323 326 327 328 323 323 325 325 326 326 325 323 322 321 320 319 319 321 321 320 317 315 315 314 314 314 313 314 313 313 313 313 312 312 312 312 312 312 312 313 314 320 325 326
Wind_Speed
3 5 1 7 5 5 5 3 6 6 5 5 7 5 5 11 10 9 10 9 9 13 10 19 23 26 26 26 30 32 31 31 29 27 28 28 29 28 27 26 25 23 20 18
6 3 6 4 4 5 5 2 4 2 4 5 5 3 1 6 10 9 10 10 10 7 6 11 19 25 27 31 31 32 33 32 31 30 30 28 18 21 24 25 23 22 21 18
4 5 4 2 0 4 3 2 2 3 2 4 6 6 7 4 3 6 8 6 7 9 7 5 12 23 26 30 32 33 31 30 29 29 28 27 25 24 26 26 22 18 16 17
3 3 3 4 4 5 1 6 3 5 4 3 4 3 4 5 8 5 6 10 9 10 5 4 6 15 26 29 25 26 27 23 18 22 24 25 25 23 23 20 20 19 16 15
6 2 3 5 3 5 8 2 3 3 5 3 8 5 6 5 6 4 6 5 3 5 6 6 5 12 14 14 17 19 20 18 20 22 18 17 22 25 28 27 21 19 17 16
6 3 4 7 1 4 3 4 7 5 4 3 4 4 5 4 4 5 3 5 5 8 8 7 6 5 7 2 9 16 20 20 22 23 21 24 24 17 20 27 32 21 18 19
5 5 3 3 1 1 4 7 4 4 5 4 1 2 6 6 4 3 6 6 5 7 7 6 6 7 3 3 5 14 22 23 23 21 21 25 24 18 15 20 23 29 24 25
3 4 4 3 6 7 2 7 6 4 3 4 2 1 4 5 5 4 3 5 6 9 10 8 6 10 7 6 5 15 21 23 22 18 18 16 21 14 7 23 28 31 32 32
4 5 5 2 3 6 3 2 4 8 3 2 2 3 6 5 6 4 5 5 10 14 15 11 8 4 13 6 9 16 19 20 18 20 19 10 9 9 11 26 28 28 31 29
3 2 1 4 2 6 3 6 4 4 4 3 5 4 5 6 8 6 7 9 7 9 10 10 13 17 20 7 10 14 16 18 16 16 18 11 15 18 19 25 29 28 22 19
5 3 7 3 5 1 2 3 7 6 3 5 2 6 5 8 8 10 9 6 4 6 8 9 12 12 16 11 1 10 14 12 11 11 12 14 17 16 24 30 29 24 16 14
5 5 0 1 6 3 3 4 4 5 3 2 2 5 3 7 7 1 6 5 5 6 6 8 12 10 11 10 3 7 9 4 7 7 9 12 17 17 16 18 19 15 14 15
8 1 3 7 7 4 6 3 4 6 3 5 5 5 6 6 2 4 6 1 2 3 7 8 8 5 4 9 9 8 1 2 5 6 6 7 5 4 7 9 6 4 8 10
9 4 6 7 6 4 3 2 3 4 4 5 5 3 5 7 4 1 4 6 5 7 8 7 7 4 5 7 12 12 9 6 6 7 7 6 3 1 3 5 4 4 4 5
5 4 3 4 5 6 3 2 2 2 1 4 5 5 3 4 3 4 5 7 9 9 9 8 7 7 16 18 12 10 12 16 15 13 11 10 10 8 6 3 5 5 5 5
2 3 3 5 8 8 6 5 4 5 3 5 7 5 2 3 8 11 9 11 11 8 8 7 8 13 14 15 18 21 22 17 15 20 23 19 19 16 16 14 14 12 11 11
4 5 3 1 3 4 3 4 2 3 3 2 4 4 2 6 10 6 7 8 8 8 7 7 6 10 15 18 23 25 24 23 19 14 17 24 24 25 26 23 19 19 18 18
6 5 3 3 4 1 4 3 7 8 4 4 10 6 5 6 5 7 6 7 7 6 7 9 15 20 21 22 23 24 23 23 23 23 20 18 17 21 26 29 26 25 24 22
5 5 4 4 2 2 4 6 4 3 2 3 7 8 7 6 5 6 6 7 6 6 9 10 13 16 18 18 21 22 23 22 23 23 23 22 22 24 25 24 26 29 29 28
6 7 5 3 5 7 5 2 4 5 2 7 6 6 5 6 2 3 2 2 4 7 11 15 19 19 20 21 23 22 21 22 20 21 23 24 28 29 28 26 26 25 25 28
4 4 5 2 2 5 4 2 4 4 6 6 6 4 4 3 2 4 2 4 11 13 16 16 17 17 18 19 21 22 22 18 24 26 27 26 24 23 23 24 26 27 27 25
4 5 2 3 3 5 3 4 7 4 3 6 4 3 5 6 5 5 6 6 9 10 15 18 19 20 17 19 18 21 20 25 23 25 25 26 26 26 22 22 25 24 26 26
1 5 5 5 4 2 3 2 2 3 5 4 6 4 6 6 4 3 3 4 6 10 12 15 16 14 16 17 20 18 22 23 27 27 26 26 28 27 25 23 23 22 21 20
2 2 4 3 2 3 3 3 4 4 6 7 6 6 5 6 4 3 3 4 8 9 12 14 14 14 16 20 20 18 22 27 29 29 28 26 25 26 26 24 23 20 19 19
4 4 5 1 1 3 1 4 7 10 10 10 7 6 6 6 4 2 3 5 8 10 15 14 14 16 19 21 21 24 24 27 27 27 26 25 23 23 24 23 25 24 23 23
4 7 5 6 8 5 4 7 8 10 8 7 8 5 6 6 3 3 5 7 10 13 15 15 17 18 22 22 23 24 27 26 27 28 26 25 25 23 22 22 26 24 23 25
Wind_Direction
4 51 286 249 190 203 252 191 224 266 201 131 190 255 250 194 199 201 204 209 208 216 219 211 213 215 212 217 221 228 225 225 226 222 233 244 249 255 259 263 266 267 251 250
19 291 241 218 177 201 233 275 290 296 102 101 174 207 303 200 226 222 207 214 222 234 198 192 193 203 208 216 220 223 229 228 227 230 233 239 258 269 271 273 267 262 258 252
155 236 316 286 204 348 339 202 283 109 69 66 109 347 346 3 191 216 215 215 209 226 221 166 176 192 207 217 220 223 227 233 230 233 234 241 246 261 266 275 267 260 258 253
258 299 274 22 325 135 266 199 153 107 77 205 39 228 301 317 289 258 250 217 204 214 163 186 149 192 207 217 223 227 223 228 232 237 238 239 241 250 259 273 281 281 269 254
239 241 359 349 202 167 231 136 77 59 80 76 357 83 269 347 304 337 338 292 170 104 72 80 156 215 218 217 223 227 223 218 223 225 224 238 244 260 270 273 276 272 273 262
225 263 217 208 65 178 124 86 46 56 76 40 284 119 300 270 274 318 14 42 77 82 80 84 83 74 71 170 213 214 214 210 221 219 217 226 241 252 278 283 278 270 276 271
320 261 290 165 207 75 78 56 358 13 17 214 133 64 226 269 268 239 306 42 73 86 83 63 40 15 74 143 150 192 197 193 211 213 225 243 242 230 254 288 290 284 273 270
140 334 194 181 193 182 100 147 152 175 200 262 287 222 251 255 318 300 9 126 135 121 106 87 57 28 359 245 222 183 193 200 210 210 226 288 251 228 266 297 293 284 274 273
138 277 287 205 177 129 178 131 161 105 356 49 285 281 318 324 302 318 253 245 184 164 128 112 123 70 38 50 186 192 196 189 209 236 264 301 257 296 276 288 301 282 269 269
176 348 297 275 123 40 131 151 75 17 133 220 302 280 239 228 246 245 247 233 280 60 88 78 69 22 25 46 171 178 193 210 233 266 278 296 321 278 269 295 290 290 278 273
142 119 287 32 20 214 55 54 55 111 104 154 180 268 223 228 209 216 237 217 233 75 60 81 72 36 33 26 292 234 241 232 242 278 279 285 302 289 268 282 277 274 271 272
192 139 192 232 299 273 103 118 118 118 215 51 139 271 346 268 212 118 280 317 349 58 68 71 80 63 9 357 34 229 235 318 308 312 311 303 300 300 292 284 277 267 258 266
179 225 59 353 347 356 57 49 97 108 103 186 140 261 9 357 203 197 191 240 17 61 61 69 71 61 303 295 308 285 28 343 325 316 295 283 286 323 25 31 4 290 269 266
94 99 160 182 195 147 99 79 117 105 114 168 222 285 349 347 345 62 36 42 26 28 35 33 33 14 263 272 271 290 301 294 286 288 278 276 253 131 63 27 10 4 346 317
108 116 105 58 84 80 80 4 52 9 184 152 194 145 343 328 345 70 88 68 57 44 37 23 2 354 5 5 351 310 300 295 293 282 270 246 252 241 219 258 243 247 251 260
40 145 130 53 50 93 72 32 47 55 89 68 113 65 317 36 79 65 54 70 63 52 42 29 21 17 18 20 12 6 3 357 301 283 264 269 272 264 258 249 222 225 240 244
77 124 86 157 22 56 24 334 8 50 19 164 148 160 185 55 63 50 58 61 62 47 31 20 8 3 7 7 2 353 346 344 350 328 284 269 272 273 267 259 250 241 236 240
117 93 60 110 36 142 278 14 107 106 34 61 108 109 110 113 92 68 53 72 53 30 12 6 359 356 356 349 341 332 329 330 330 329 331 329 319 299 287 281 274 262 255 250
68 108 65 112 81 324 304 243 203 136 345 356 126 137 143 131 71 26 28 43 39 19 2 341 348 346 341 347 347 343 339 338 332 329 329 324 326 324 312 300 286 272 270 264
61 73 104 115 126 191 244 171 132 120 272 193 168 178 167 143 183 199 92 61 29 12 3 352 351 352 353 352 350 343 339 333 331 330 323 312 308 308 305 305 301 295 278 271
26 20 111 112 143 288 239 152 160 104 236 156 154 157 153 144 177 140 86 34 17 6 350 347 347 343 345 346 342 336 332 329 326 321 319 317 313 304 298 300 299 299 293 286
153 126 146 96 93 255 176 81 158 197 95 130 131 132 97 103 82 47 39 16 355 344 348 350 339 330 332 339 353 343 335 337 339 334 328 318 312 310 298 298 300 293 285 282
125 173 176 168 205 277 285 255 106 122 118 112 110 83 109 97 65 47 9 347 335 343 341 343 332 335 347 350 349 342 338 338 333 328 326 320 312 307 300 288 293 290 283 277
32 141 94 96 291 43 69 66 65 81 98 93 90 99 97 120 97 61 358 329 352 346 350 348 351 350 346 346 346 341 337 334 329 323 318 315 311 309 308 304 285 277 277 276
195 116 130 58 310 74 24 96 120 100 100 99 88 97 102 99 72 55 21 12 359 359 0 354 352 348 345 344 343 341 335 329 322 315 308 305 303 302 303 304 298 294 278 271
187 165 162 214 188 150 162 144 127 123 125 123 115 93 80 89 82 32 46 27 26 15 5 355 353 347 346 345 340 339 337 332 325 319 317 311 305 302 299 303 307 301 294 287